Hallock, MN

12:01 PM CDT on June 29, 2017 (GMT -0500)
Hallock Municipal

Weather History for KHCO - December, 2013

Change the Weather History Date:

Thursday, December 19, 2013

  Actual Average Record
Temperature  
Mean Temperature -6 °F -  
Max Temperature -2 °F 16 °F 41 °F (1957)
Min Temperature -9 °F 0 °F -32 °F (1955)
Degree Days  
Heating Degree Days 70    
Moisture  
Dew Point -13 °F    
Average Humidity 74    
Maximum Humidity 84    
Minimum Humidity 65    
Precipitation  
Precipitation 0.00 in - - ()
Sea Level Pressure  
Sea Level Pressure 30.22 in    
Wind  
Wind Speed 13 mph (NNW)    
Max Wind Speed 22 mph    
Max Gust Speed 26 mph    
Visibility 9 miles    
Events      
Averages and records for this station are not official NWS values.
T = Trace of Precipitation, MM = Missing Value Source: NWS Daily Summary

Daily Weather History Graph

Daily Weather History Graph

Search for Another Location

Airport or City:

Trip Planner

Search our weather history database for the weather conditions in past years. The results will help you decide how hot, cold, wet, or windy it might be!

Date:

Astronomy

Dec. 19, 2013 Rise Set
Actual Time 8:17 AM CST 4:33 PM CST
Civil Twilight 7:39 AM CST 5:10 PM CST
Nautical Twilight 6:59 AM CST 5:50 PM CST
Astronomical Twilight 6:21 AM CST 6:29 PM CST
Moon 7:10 PM CST (12/19) 9:26 AM CST (12/19)
Length of Visible Light 9h 30m
Length of Day
8h 15m
Waning Gibbous, 95% of the Moon is Illuminated
Dec 19
Waning Gibbous
Dec 25
Last Quarter
Jan 1
New
Jan 7
First Quarter
Jan 15
Full

Hourly Weather History & Observations

Time (CST) Temp. Windchill Dew Point Humidity Pressure Visibility Wind Dir Wind Speed Gust Speed Precip Events Conditions
12:13 AM -2.2 °F -24.7 °F -9.4 °F 71% 30.06 in 4.0 mi NNW 19.6 mph 26.5 mph N/A   Haze
12:33 AM -4.0 °F -26.4 °F -9.4 °F 78% 30.08 in 7.0 mi North 18.4 mph - N/A   Overcast
12:53 AM -4.0 °F -27.0 °F -9.4 °F 78% 30.08 in 7.0 mi North 19.6 mph - N/A   Overcast
1:13 AM -4.0 °F -27.0 °F -9.4 °F 78% 30.10 in 7.0 mi NNW 19.6 mph 24.2 mph N/A   Overcast
1:33 AM -5.8 °F -28.8 °F -11.2 °F 77% 30.10 in 7.0 mi North 18.4 mph 25.3 mph N/A   Overcast
1:53 AM -5.8 °F -28.8 °F -11.2 °F 77% 30.12 in 7.0 mi NNW 18.4 mph - N/A   Overcast
2:13 AM -5.8 °F -28.8 °F -11.2 °F 77% 30.12 in 5.0 mi NNW 18.4 mph 24.2 mph N/A   Haze
2:33 AM -5.8 °F -28.2 °F -11.2 °F 77% 30.13 in 7.0 mi North 17.3 mph - N/A   Overcast
2:53 AM -5.8 °F -30.5 °F -11.2 °F 77% 30.14 in 5.0 mi North 21.9 mph - N/A   Haze
3:13 AM -5.8 °F -29.4 °F -13.0 °F 71% 30.16 in 5.0 mi North 19.6 mph - N/A   Haze
3:33 AM -7.6 °F -30.5 °F -13.0 °F 77% 30.18 in 7.0 mi North 17.3 mph - N/A   Mostly Cloudy
3:53 AM -7.6 °F -30.5 °F -13.0 °F 77% 30.20 in 7.0 mi NNW 17.3 mph - N/A   Overcast
4:13 AM -7.6 °F -27.5 °F -13.0 °F 77% 30.21 in 7.0 mi NNW 12.7 mph - N/A   Mostly Cloudy
4:33 AM -7.6 °F -29.1 °F -14.8 °F 71% 30.21 in 7.0 mi NNW 15.0 mph - N/A   Overcast
4:53 AM -7.6 °F -31.7 °F -14.8 °F 71% 30.21 in 5.0 mi NNW 19.6 mph - N/A   Haze
5:13 AM -7.6 °F -29.8 °F -14.8 °F 71% 30.21 in 7.0 mi North 16.1 mph - N/A   Overcast
5:33 AM -7.6 °F -29.8 °F -14.8 °F 71% 30.21 in 5.0 mi North 16.1 mph - N/A   Haze
5:53 AM -7.6 °F -29.1 °F -14.8 °F 71% 30.22 in 5.0 mi North 15.0 mph 21.9 mph N/A   Haze
6:13 AM -9.4 °F -29.8 °F -14.8 °F 77% 30.22 in 7.0 mi North 12.7 mph - N/A   Overcast
6:33 AM -9.4 °F -27.9 °F -14.8 °F 77% 30.23 in 7.0 mi North 10.4 mph - N/A   Overcast
6:53 AM -9.4 °F -26.8 °F -16.6 °F 71% 30.23 in 10.0 mi North 9.2 mph - N/A   Scattered Clouds
7:13 AM -9.4 °F -26.8 °F -16.6 °F 71% 30.23 in 10.0 mi North 9.2 mph - N/A   Clear
7:33 AM -9.4 °F -26.8 °F -16.6 °F 71% 30.23 in 10.0 mi North 9.2 mph - N/A   Clear
7:53 AM -9.4 °F -25.6 °F -16.6 °F 71% 30.23 in 10.0 mi North 8.1 mph - N/A   Clear
8:13 AM -9.4 °F -27.9 °F -16.6 °F 71% 30.23 in 10.0 mi North 10.4 mph - N/A   Clear
8:33 AM -9.4 °F -27.9 °F -16.6 °F 71% 30.24 in 10.0 mi North 10.4 mph - N/A   Clear
8:53 AM -9.4 °F -28.9 °F -16.6 °F 71% 30.25 in 10.0 mi North 11.5 mph - N/A   Clear
9:13 AM -9.4 °F -30.6 °F -16.6 °F 71% 30.26 in 10.0 mi North 13.8 mph - N/A   Clear
9:33 AM -9.4 °F -30.6 °F -16.6 °F 71% 30.28 in 10.0 mi North 13.8 mph - N/A   Clear
9:53 AM -9.4 °F -29.8 °F -16.6 °F 71% 30.29 in 10.0 mi North 12.7 mph - N/A   Clear
10:13 AM -9.4 °F -29.8 °F -14.8 °F 77% 30.30 in 10.0 mi North 12.7 mph - N/A   Clear
10:33 AM -7.6 °F -24.6 °F -14.8 °F 71% 30.31 in 10.0 mi North 9.2 mph - N/A   Clear
10:53 AM -7.6 °F -24.6 °F -14.8 °F 71% 30.31 in 10.0 mi North 9.2 mph - N/A   Clear
11:13 AM -7.6 °F -25.7 °F -14.8 °F 71% 30.31 in 10.0 mi NNW 10.4 mph - N/A   Clear
11:33 AM -7.6 °F -24.6 °F -14.8 °F 71% 30.31 in 10.0 mi NNW 9.2 mph - N/A   Clear
11:53 AM -7.6 °F -25.7 °F -14.8 °F 71% 30.29 in 10.0 mi North 10.4 mph - N/A   Clear
12:13 PM -5.8 °F -22.4 °F -14.8 °F 65% 30.28 in 10.0 mi North 9.2 mph - N/A   Clear
12:33 PM -5.8 °F -22.4 °F -13.0 °F 71% 30.27 in 10.0 mi North 9.2 mph - N/A   Clear
12:53 PM -5.8 °F -19.9 °F -13.0 °F 71% 30.27 in 10.0 mi NNW 6.9 mph - N/A   Clear
1:13 PM -5.8 °F -18.4 °F -13.0 °F 71% 30.27 in 10.0 mi NNW 5.8 mph - N/A   Clear
1:33 PM -5.8 °F -16.7 °F -13.0 °F 71% 30.26 in 10.0 mi NW 4.6 mph - N/A   Clear
1:53 PM -5.8 °F -16.7 °F -11.2 °F 77% 30.25 in 10.0 mi NNW 4.6 mph - N/A   Clear
2:13 PM -5.8 °F -21.2 °F -11.2 °F 77% 30.25 in 10.0 mi NNW 8.1 mph - N/A   Clear
2:33 PM -5.8 °F -21.2 °F -11.2 °F 77% 30.25 in 10.0 mi NNW 8.1 mph - N/A   Clear
2:53 PM -4.0 °F -20.2 °F -11.2 °F 71% 30.25 in 10.0 mi NNW 9.2 mph - N/A   Clear
3:13 PM -4.0 °F -16.3 °F -11.2 °F 71% 30.25 in 10.0 mi NNW 5.8 mph - N/A   Clear
3:33 PM -4.0 °F -16.3 °F -11.2 °F 71% 30.26 in 10.0 mi NNW 5.8 mph - N/A   Clear
3:53 PM -4.0 °F -12.4 °F -11.2 °F 71% 30.26 in 10.0 mi North 3.5 mph - N/A   Clear
4:13 PM -4.0 °F -12.4 °F -9.4 °F 78% 30.26 in 10.0 mi North 3.5 mph - N/A   Mostly Cloudy
4:33 PM -4.0 °F - -9.4 °F 78% 30.25 in 10.0 mi Calm Calm - N/A   Mostly Cloudy
4:53 PM -4.0 °F - -9.4 °F 78% 30.25 in 10.0 mi Calm Calm - N/A   Overcast
5:13 PM -2.2 °F - -9.4 °F 71% 30.25 in 10.0 mi Calm Calm - N/A   Scattered Clouds
5:33 PM -2.2 °F - -9.4 °F 71% 30.25 in 10.0 mi Calm Calm - N/A   Scattered Clouds
5:53 PM -2.2 °F - -9.4 °F 71% 30.25 in 10.0 mi Calm Calm - N/A   Scattered Clouds
6:13 PM -2.2 °F - -9.4 °F 71% 30.24 in 10.0 mi Calm Calm - N/A   Scattered Clouds
6:33 PM -2.2 °F - -9.4 °F 71% 30.24 in 10.0 mi Calm Calm - N/A   Scattered Clouds
6:53 PM -2.2 °F -10.4 °F -9.4 °F 71% 30.24 in 7.0 mi SSE 3.5 mph - N/A   Scattered Clouds
7:13 PM -2.2 °F -14.2 °F -9.4 °F 71% 30.24 in 10.0 mi South 5.8 mph - N/A   Clear
7:33 PM -2.2 °F -12.5 °F -9.4 °F 71% 30.23 in 10.0 mi South 4.6 mph - N/A   Scattered Clouds
7:53 PM -2.2 °F -10.4 °F -9.4 °F 71% 30.23 in 10.0 mi South 3.5 mph - N/A   Clear
8:13 PM -2.2 °F -12.5 °F -9.4 °F 71% 30.21 in 10.0 mi South 4.6 mph - N/A   Clear
8:33 PM -5.8 °F -16.7 °F -9.4 °F 84% 30.21 in 10.0 mi South 4.6 mph - N/A   Scattered Clouds
8:53 PM -5.8 °F -16.7 °F -11.2 °F 77% 30.21 in 10.0 mi South 4.6 mph - N/A   Scattered Clouds
9:13 PM -7.6 °F -22.1 °F -11.2 °F 84% 30.20 in 10.0 mi South 6.9 mph - N/A   Clear
9:33 PM -7.6 °F -20.6 °F -13.0 °F 77% 30.19 in 10.0 mi SSE 5.8 mph - N/A   Clear
9:53 PM -7.6 °F -22.1 °F -11.2 °F 84% 30.18 in 10.0 mi South 6.9 mph - N/A   Clear
10:13 PM -7.6 °F -22.1 °F -14.8 °F 71% 30.18 in 10.0 mi SSE 6.9 mph - N/A   Clear
10:33 PM -7.6 °F -22.1 °F -14.8 °F 71% 30.18 in 10.0 mi SSE 6.9 mph - N/A   Clear
10:53 PM -9.4 °F -25.6 °F -14.8 °F 77% 30.17 in 10.0 mi SSE 8.1 mph - N/A   Clear
11:13 PM -9.4 °F -27.9 °F -14.8 °F 77% 30.16 in 10.0 mi SSE 10.4 mph - N/A   Clear
11:33 PM -9.4 °F -25.6 °F -14.8 °F 77% 30.16 in 10.0 mi SSE 8.1 mph - N/A   Clear
11:54 PM -9.4 °F -26.8 °F -14.8 °F 77% 30.15 in 10.0 mi South 9.2 mph - N/A   Clear